LKPO Weather Reports


Display with metric or nautical units.
time (UTC)temp
F
wind
direction
speed
MPH
gust
MPH
rain 1hr
in
rain 24hr
in
rain mn
in
humidity
%
barometer
mb
20260905182138 68 310 5.0 0.0 0.00 0.00 0.00 45
20260905172234 72 310 9.0 0.0 0.00 0.00 0.00 40
20260905162542 72 270 16.0 0.0 0.00 0.00 0.00 37
20260905152028 75 280 16.0 0.0 0.00 0.00 0.00 33
20260905142026 75 270 18.0 0.0 0.00 0.00 0.00 33
20260905132345 75 280 14.0 0.0 0.00 0.00 0.00 36
20260905122242 73 300 14.0 0.0 0.00 0.00 0.00 40
20260905112147 72 290 12.0 0.0 0.00 0.00 0.00 43
20260905102602 70 270 14.0 0.0 0.00 0.00 0.00 49
20260905092130 64 240 5.0 0.0 0.00 0.00 0.00 63
20260905082200 63 250 7.0 0.0 0.00 0.00 0.00 67
20260905072500 61 270 7.0 0.0 0.00 0.00 0.00 77
20260905062201 63 280 16.0 0.0 0.00 0.00 0.00 72
20260905052158 64 270 7.0 0.0 0.00 0.00 0.00 77
20260905042601 64 310 12.0 0.0 0.00 0.00 0.00 77
20260905032200 68 310 16.0 0.0 0.00 0.00 0.00 56
20260905022200 70 310 14.0 0.0 0.00 0.00 0.00 56
20260905012527 73 300 22.0 33.0 0.00 0.00 0.00 56
20260905002214 73 210 9.0 0.0 0.00 0.00 0.00 49
20260904232246 75 210 9.0 0.0 0.00 0.00 0.00 47
20260904222615 75 210 9.0 0.0 0.00 0.00 0.00 47
20260904212159 75 220 9.0 0.0 0.00 0.00 0.00 47
20260904202158 77 220 9.0 0.0 0.00 0.00 0.00 47
20260904192446 72 240 9.0 0.0 0.00 0.00 0.00 56